EW8088 Weather Reports


time (UTC)temp
C
wind
direction
speed
KPH
gust
KPH
rain 1hr
cm
rain 24hr
cm
rain mn
cm
humidity
%
barometer
mb
20260506232017 4 0.0 0.0 0.00 0.00 0.00 90 1015.7
20260506231017 4 0.0 0.0 0.00 0.00 0.00 90 1015.7
20260506230017 4 0.0 0.0 0.00 0.00 0.00 90 1015.7
20260506225056 5 0.0 0.0 0.00 0.00 0.00 90 1015.7
20260506224056 5 0.0 0.0 0.00 0.00 0.00 90 1015.7
20260506223015 5 0.0 0.0 0.00 0.00 0.00 90 1015.7
20260506222017 5 0.0 0.0 0.00 0.00 0.00 90 1015.7
20260506221015 6 0.0 0.0 0.00 0.00 0.00 90 1015.6
20260506220017 6 0.0 0.0 0.00 0.00 0.00 90 1015.6
20260506215037 6 0.0 1.6 0.00 0.00 0.00 90 1015.6
20260506214037 6 0.0 1.6 0.00 0.00 0.00 90 1015.6
20260506213018 7 0.0 3.2 0.00 0.00 0.00 90 1015.5
20260506212017 7 0.0 1.6 0.00 0.00 0.00 90 1015.4
20260506211017 7 0.0 1.6 0.00 0.00 0.00 90 1015.4
20260506210017 7 0.0 1.6 0.00 0.00 0.00 90 1015.4
20260506205017 7 0.0 1.6 0.00 0.00 0.00 90 1015.4
20260506204017 7 0.0 3.2 0.00 0.00 0.00 90 1015.3
20260506203015 7 0.0 1.6 0.00 0.00 0.00 90 1015.2
20260506202037 8 0.0 3.2 0.00 0.00 0.00 90 1015.2
20260506201017 8 0.0 1.6 0.00 0.00 0.00 90 1015.1
20260506200017 8 0.0 4.8 0.00 0.00 0.00 90 1015.0
20260506195017 8 0.0 4.8 0.00 0.00 0.00 90 1014.9
20260506194017 9 0.0 4.8 0.00 0.00 0.00 90 1014.8
20260506193017 9 338 1.6 9.7 0.00 0.00 0.00 89 1014.7
20260506192037 10 0 1.6 4.8 0.00 0.00 0.00 89 1014.7
20260506191017 10 0 1.6 8.0 0.00 0.00 0.00 89 1014.6
20260506190018 10 0 1.6 8.0 0.00 0.00 0.00 88 1014.5
20260506185017 10 0 1.6 9.7 0.00 0.00 0.00 88 1014.5
20260506184017 10 0 1.6 11.3 0.00 0.00 0.00 88 1014.4
20260506183017 11 338 1.6 8.0 0.00 0.00 0.00 87 1014.3
20260506182037 11 0 3.2 9.7 0.00 0.00 0.00 87 1014.2
20260506181037 11 338 3.2 9.7 0.00 0.00 0.00 87 1014.1
20260506180017 11 338 1.6 9.7 0.00 0.00 0.00 87 1014.0
20260506175016 11 338 1.6 6.4 0.00 0.00 0.00 87 1013.9
20260506174037 11 338 3.2 9.7 0.00 0.00 0.00 86 1013.9
20260506173017 12 338 3.2 14.5 0.00 0.00 0.00 83 1013.8
20260506172017 12 338 1.6 11.3 0.00 0.00 0.00 85 1013.8
20260506171017 12 338 1.6 9.7 0.00 0.00 0.00 90 1013.7
20260506170037 13 338 1.6 8.0 0.00 0.00 0.00 90 1013.8
20260506165016 13 0 1.6 8.0 0.00 0.00 0.00 91 1013.8
20260506164057 13 338 3.2 11.3 0.00 0.00 0.00 91 1013.7
20260506163017 12 0 1.6 11.3 0.00 0.00 0.00 91 1013.7
20260506162017 12 338 4.8 12.9 0.00 0.00 0.00 91 1013.8
20260506161017 12 338 3.2 12.9 0.00 0.00 0.00 92 1013.8
20260506160017 12 338 3.2 14.5 0.00 0.00 0.00 92 1013.8
20260506155016 12 0 1.6 11.3 0.00 0.00 0.00 92 1013.9
20260506154016 12 0 3.2 12.9 0.00 0.00 0.00 92 1014.0
20260506153017 12 0 3.2 12.9 0.00 0.00 0.00 92 1014.0
20260506152037 12 338 1.6 9.7 0.00 0.00 0.00 92 1014.0
20260506151017 12 0 1.6 6.4 0.00 0.00 0.00 92 1014.1
20260506150016 12 0 1.6 8.0 0.00 0.00 0.00 92 1014.1
20260506145016 12 338 1.6 11.3 0.00 0.00 0.00 92 1014.0
20260506144016 12 338 3.2 12.9 0.00 0.00 0.00 92 1014.0
20260506143037 12 338 1.6 6.4 0.00 0.00 0.00 92 1014.0
20260506142016 12 0 1.6 11.3 0.00 0.00 0.00 92 1014.0
20260506141016 12 0 1.6 12.9 0.00 0.00 0.00 92 1014.0
20260506140056 12 338 1.6 11.3 0.00 0.00 0.00 92 1014.0
20260506135016 12 338 3.2 9.7 0.00 0.00 0.00 91 1014.1
20260506134017 11 338 3.2 9.7 0.00 0.00 0.00 91 1014.1
20260506133016 11 338 3.2 14.5 0.00 0.00 0.00 91 1014.2
20260506132016 11 338 3.2 12.9 0.00 0.00 0.00 91 1014.2
20260506131016 11 0 3.2 12.9 0.00 0.00 0.00 91 1014.2
20260506130037 11 338 3.2 12.9 0.00 0.00 0.00 91 1014.3
20260506125016 11 338 1.6 9.7 0.00 0.00 0.00 91 1014.2
20260506124016 11 338 3.2 11.3 0.00 0.00 0.00 91 1014.1
20260506123016 12 338 3.2 12.9 0.00 0.00 0.00 91 1014.2
20260506122016 11 338 3.2 14.5 0.00 0.00 0.00 91 1014.2
20260506121016 12 338 1.6 9.7 0.00 0.00 0.00 91 1014.2
20260506120016 11 338 3.2 9.7 0.00 0.00 0.00 91 1014.1
20260506115016 11 0 3.2 11.3 0.00 0.00 0.00 90 1014.3
20260506114016 11 0 4.8 12.9 0.00 0.00 0.00 91 1014.3
20260506113016 11 338 3.2 16.1 0.00 0.00 0.00 91 1014.3
20260506112016 12 338 4.8 17.7 0.00 0.00 0.00 91 1014.3
20260506111016 12 338 1.6 12.9 0.00 0.00 0.00 91 1014.2
20260506110036 11 0 1.6 14.5 0.00 0.00 0.00 91 1014.2
20260506105016 11 338 3.2 16.1 0.00 0.00 0.00 91 1014.2
20260506104016 12 0 4.8 14.5 0.00 0.00 0.00 91 1014.2
20260506103016 11 338 3.2 12.9 0.00 0.00 0.00 91 1014.1
20260506102016 11 338 4.8 14.5 0.00 0.00 0.00 91 1014.2
20260506101016 11 0 3.2 12.9 0.00 0.00 0.00 91 1014.2
20260506100016 10 338 3.2 14.5 0.00 0.00 0.00 91 1014.2
20260506095016 10 338 3.2 11.3 0.00 0.00 0.00 91 1014.1
20260506094016 9 0 3.2 12.9 0.00 0.00 0.00 91 1014.2
20260506093016 9 338 3.2 9.7 0.00 0.00 0.00 92 1014.2
20260506092035 9 338 3.2 14.5 0.00 0.00 0.00 92 1014.2
20260506091016 9 338 3.2 11.3 0.00 0.00 0.00 92 1014.2
20260506090016 10 338 3.2 9.7 0.00 0.00 0.00 92 1014.1
20260506085016 9 338 1.6 9.7 0.00 0.00 0.00 92 1014.1
20260506084036 9 338 3.2 11.3 0.00 0.00 0.00 92 1014.1
20260506083016 9 338 3.2 11.3 0.00 0.00 0.00 92 1014.1
20260506082016 8 338 1.6 9.7 0.00 0.00 0.00 92 1014.1
20260506081015 8 338 3.2 8.0 0.00 0.00 0.00 92 1014.2
20260506073016 7 0 3.2 14.5 0.00 0.00 0.00 92 1014.2
20260506072036 7 0 3.2 11.3 0.00 0.00 0.00 92 1014.1
20260506071015 7 338 3.2 9.7 0.00 0.00 0.00 92 1014.1
20260506062015 7 338 1.6 8.0 0.00 0.00 0.00 93 1013.9
20260506061015 7 0 1.6 11.3 0.00 0.00 0.00 93 1013.9
20260506051015 6 0.0 3.2 0.00 0.00 0.00 93 1013.7
20260506045015 6 0.0 6.4 0.00 0.00 0.00 93 1013.6
20260506044018 6 0.0 3.2 0.00 0.00 0.00 93 1013.6
20260506043015 7 0.0 4.8 0.00 0.00 0.00 93 1013.6
20260506042017 7 0.0 4.8 0.00 0.00 0.00 93 1013.6
20260506041035 7 0.0 6.4 0.00 0.00 0.00 93 1013.6
20260506040018 7 0.0 8.0 0.00 0.00 0.00 93 1013.6
20260506035017 7 338 1.6 6.4 0.00 0.00 0.00 93 1013.6
20260506034017 7 338 1.6 8.0 0.00 0.00 0.00 93 1013.6
20260506033037 7 0 1.6 8.0 0.00 0.00 0.00 93 1013.6
20260506032018 7 338 1.6 8.0 0.00 0.00 0.00 93 1013.6
20260506031018 7 0 1.6 11.3 0.00 0.00 0.00 93 1013.7
20260506030037 7 0.0 4.8 0.00 0.00 0.00 93 1013.8
20260506025017 7 0.0 8.0 0.00 0.00 0.00 93 1013.7
20260506024037 7 0.0 4.8 0.00 0.00 0.00 93 1013.7
20260506023017 7 0 1.6 8.0 0.00 0.00 0.00 93 1013.7
20260506022017 7 0 1.6 8.0 0.00 0.00 0.00 93 1013.8
20260506021037 7 0.0 8.0 0.00 0.00 0.00 93 1013.8
20260506020015 8 0.0 8.0 0.00 0.00 0.00 93 1013.8
20260506015037 8 0.0 3.2 0.00 0.00 0.00 93 1013.8
20260506014017 8 0.0 1.6 0.00 0.00 0.00 93 1013.7
20260506013017 8 0.0 4.8 0.00 0.00 0.00 93 1013.9
20260506012017 8 0.0 3.2 0.00 0.00 0.00 93 1013.9
20260506011018 8 0.0 3.2 0.00 0.00 0.00 93 1014.0
20260506010017 8 0.0 3.2 0.00 0.00 0.00 94 1013.9
20260506005017 8 0.0 4.8 0.00 0.00 0.00 94 1013.9
20260506004017 8 0.0 4.8 0.00 0.00 0.00 94 1013.8
20260506003017 8 0.0 6.4 0.00 0.00 0.00 94 1013.9
20260506002017 8 0.0 6.4 0.00 0.00 0.00 94 1013.9
20260506001017 8 0.0 4.8 0.00 0.00 0.00 94 1014.0
20260506000017 9 0.0 6.4 0.00 0.00 0.00 94 1014.0
20260505235017 9 0.0 9.7 0.00 0.00 0.00 94 1013.9
20260505234017 9 0.0 4.8 0.00 0.00 0.00 94 1014.0
20260505233017 9 0.0 6.4 0.00 0.00 0.00 94 1014.0